{"data":{"norad_id":68843,"intl_designator":"2026-094E","name":"STARLINK-37219","alt_names":[],"object_type":"PAYLOAD","status":"ACTIVE","operator":null,"country":"US","launch_date":"2026-04-26","launch_site_code":"AFWTR","launch_vehicle":null,"mission":null,"orbit_class":"UNKNOWN","rcs_meters":null,"size_class":null,"mass_kg":null,"dimensions":null,"purposes":["comms"],"wikipedia_slug":null,"has_3d_model":false,"image_url":null,"decayed_at":null,"tle_current":{"epoch":"2026-09-20T00:34:31.224000Z","epoch_age_seconds":56682,"freshness":"FRESH","line1":"1 68843U 26094E   26263.02397250  .00016939  00000+0  52542-3 0  9995","line2":"2 68843  97.2832 279.1941 0001733  95.5911 264.5530 15.33469994 22786","mean_motion":15.33469994,"eccentricity":0.0001733,"inclination_deg":97.2832,"raan_deg":279.1941,"arg_perigee_deg":95.5911,"mean_anomaly_deg":264.553,"bstar":0.00052542,"rev_number":2278,"period_min":93.904674081285,"perigee_km":464.28281404193,"apogee_km":466.654807816,"semimajor_km":6843.605810929,"source":"CELESTRAK","updated_at":"2026-09-20T09:00:44.014584Z"}}}